Погода в Сплите

Хорватия     43°30′45″N   16°26′32″E
темп.,
°C
ветер,
м/с
пор.,
м/с
влажн.,
%
обл.,
%
осадки,
мм/ч
давл.,
гПа
погр.,
м
26 января, вт
вт2601:00+4ссв238872 2.3 1005166
04:00+2ссв57752 0.1 1007248
07:00+2св8136029 0.1 1010686
10:00+4ссв9165526 0.0 10121191
13:00+6с5104712 0.0 10121647
16:00+4с48550 0.0 10141276
19:00+2ссз46620 0.0 1015439
22:00+1с33640 0.0 1017187
27 января, ср
ср2701:00+1ссв34590 0.0 1017192
04:00+1ссв35530 0.0 1016197
07:00+1с412510 0.0 1016668
10:00+5с613410 0.0 10171519
13:00+6с47350 0.0 10161564
16:00+5ссз234421 0.0 1014539
19:00+3ссв225218 0.0 1015159
22:00+2св3359100 0.0 1015120
28 января, чт
чт2801:00+1св335496 0.0 1016110
04:00+1св335246 0.0 1015105
07:00+1ссв235738 0.0 1016122
10:00+4ссв22490 0.0 1017222
13:00+7зсз34520 0.0 1016771
16:00+6ссз115588 0.0 1014179
19:00+4всв116077 0.0 1014236
22:00+4всв2374100 0.2 1013193
29 января, пт
пт2901:00+3в3479100 0.2 1014208
04:00+4в357693 0.0 1013233
07:00+4в478094 0.0 1013314
10:00+7вюв7107893 0.0 1012725
13:00+8вюв7108496 0.0 1009659
16:00+7вюв71291100 1.1 1005690
19:00+7в3695100 9.3 1004302
22:00+7св3393100 3.4 100590
30 января, сб
сб3001:00+7с3388100 5.9 1006107
04:00+5ссв337668 0.0 100682
07:00+5св237037 0.0 100660
10:00+8в346964 0.0 1005207
13:00+11юв567079 0.0 1002571
16:00+10юв81379100 0.0 999772
19:00+11юв111688100 0.1 996872
22:00+12ююв101487100 2.3 993831